Find Starlink 11365

NORAD ID: 62886 Int'l Des: 2025-024 Owner: SPXS Country: US Constellation: starlink operational
LEOCIRCULAR

当前视图

正在加载3D地球...

About Starlink 11365

Starlink 11365 (NORAD 62886) is a starlink constellation satellite (v2 mini d2c) launched Feb 4, 2025 by SPXS of US. It operates in LEO, CIRCULAR orbit with a mass of 960.00 kg.

关于 Starlink 11365

正在加载描述...

即将过境

Passes for default location (London). Set your location on the main map for personalized predictions.

高度历史

Loading altitude history...

两行轨道根数

1 62886U 25024H 26170.38239716 .00145155 00000-0 11142-2 0 9990
2 62886 42.9988 288.1781 0002725 283.7841 76.2723 15.70855624 79462
Epoch: Jun 19, 2026 • Age: 58 hours

当前状态

高度 356.4 km
速度 7.70 km/s
星下点 -16.51°S, 59.49°E
发射日期 Feb 4, 2025
运行时间 1.3 years
类型 internet

技术详情

分类 Payload
质量 960.00 kg
干质量 910.00 kg
总质量 960.00 kg
长度 0.30 m
直径 4.10 m
跨度 29.00 m
形状 Box + pan
制造商 SPXS
平台类型 Starlink V2MD
阶段状态 In Orbit
所有者/国家 SPXS/US

Most Searched